Time[GMT],salinity[psu](20m),sigma_t[kg/m^3](20m),conductivity[msiemens/cm](20m),temperature[C](20m)
2018-01-24 18:00,32.289,25.706,29.592,3.18
2018-01-24 19:00,31.973,25.470,29.173,2.99
2018-01-24 20:00,32.285,25.696,29.660,3.27
2018-01-24 21:00,32.276,25.685,29.680,3.30
2018-01-24 22:00,32.189,25.598,29.774,3.50
2018-01-24 23:00,32.235,25.635,29.809,3.49
2018-01-25 00:00,32.275,25.664,29.869,3.53
2018-01-25 01:00,32.277,25.670,29.823,3.47
2018-01-25 02:00,32.180,25.612,29.562,3.25
2018-01-25 03:00,32.360,25.727,29.982,3.58
2018-01-25 04:00,32.445,25.793,30.068,3.60
2018-01-25 05:00,32.325,25.714,29.815,3.41
2018-01-25 06:00,32.280,25.680,29.763,3.39
2018-01-25 07:00,31.846,25.360,29.159,3.10
2018-01-25 08:00,32.165,25.594,29.619,3.34
2018-01-25 09:00,32.010,25.479,29.403,3.23
2018-01-25 10:00,32.015,25.481,29.432,3.26
2018-01-25 11:00,32.228,25.632,29.772,3.46
2018-01-25 12:00,32.166,25.588,29.674,3.40
2018-01-25 13:00,32.099,25.540,29.571,3.35
2018-01-25 14:00,32.276,25.669,29.830,3.48
2018-01-25 15:00,32.316,25.697,29.902,3.53
2018-01-25 16:00,32.302,25.686,29.892,3.53
2018-01-25 17:00,32.323,25.692,30.001,3.64
2018-01-25 18:00,32.303,25.679,29.954,3.60
2018-01-25 19:00,31.924,25.419,29.243,3.12
2018-01-25 20:00,31.897,25.395,29.248,3.16
2018-01-25 21:00,31.877,25.388,29.147,3.05
2018-01-25 22:00,31.913,25.412,29.223,3.11
2018-01-25 23:00,32.046,25.504,29.476,3.28
2018-01-26 00:00,32.010,25.478,29.418,3.25
2018-01-26 01:00,32.035,25.496,29.449,3.26
2018-01-26 02:00,32.183,25.597,29.732,3.45
2018-01-26 03:00,32.183,25.598,29.717,3.44
2018-01-26 04:00,32.186,25.603,29.704,3.42
2018-01-26 05:00,32.239,25.637,29.818,3.50
2018-01-26 06:00,32.240,25.637,29.830,3.52
2018-01-26 07:00,31.857,25.378,29.068,2.98
2018-01-26 08:00,31.868,25.370,29.240,3.18
2018-01-26 09:00,31.931,25.421,29.297,3.18
2018-01-26 10:00,31.968,25.446,29.363,3.22
2018-01-26 11:00,31.983,25.457,29.385,3.24
2018-01-26 12:00,32.227,25.623,29.854,3.56
2018-01-26 13:00,32.104,25.540,29.611,3.39
2018-01-26 14:00,32.137,25.562,29.676,3.43
2018-01-26 15:00,32.281,25.659,29.963,3.63
2018-01-26 16:00,32.299,25.670,30.003,3.66
2018-01-26 17:00,32.116,25.549,29.630,3.40
2018-01-26 18:00,32.175,25.589,29.740,3.47
2018-01-26 19:00,31.993,25.474,29.309,3.13
2018-01-26 20:00,31.856,25.372,29.125,3.05
2018-01-26 21:00,31.699,25.255,28.920,2.96
2018-01-26 22:00,31.695,25.250,28.927,2.97
2018-01-26 23:00,31.864,25.372,29.191,3.12
2018-01-27 00:00,31.990,25.464,29.384,3.23
2018-01-27 01:00,32.104,25.543,29.588,3.36
2018-01-27 02:00,32.193,25.601,29.780,3.50
2018-01-27 03:00,32.082,25.525,29.569,3.36
2018-01-27 04:00,32.165,25.582,29.723,3.46
2018-01-27 05:00,32.313,25.681,30.016,3.66
2018-01-27 06:00,32.094,25.531,29.607,3.39
2018-01-27 07:00,,,,
2018-01-27 08:00,31.738,25.283,28.983,2.99
2018-01-27 09:00,31.732,25.279,28.964,2.98
2018-01-27 10:00,,,,
2018-01-27 11:00,32.120,25.554,29.611,3.37
2018-01-27 12:00,32.216,25.622,29.773,3.47
2018-01-27 13:00,32.236,25.641,29.762,3.44
2018-01-27 14:00,32.227,25.641,29.688,3.36
2018-01-27 15:00,32.256,25.654,29.811,3.48
2018-01-27 16:00,32.197,25.609,29.737,3.45
2018-01-27 17:00,32.109,25.550,29.564,3.33
2018-01-27 19:00,32.249,25.643,29.847,3.53
2018-01-27 20:00,31.921,25.416,29.249,3.13
2018-01-27 21:00,32.075,25.531,29.456,3.23
2018-01-27 22:00,31.974,25.451,29.362,3.22
2018-01-27 23:00,31.912,25.404,29.292,3.19
2018-01-28 00:00,31.991,25.463,29.402,3.25
2018-01-28 01:00,32.097,25.536,29.596,3.38
2018-01-28 02:00,32.338,25.699,30.056,3.69
2018-01-28 03:00,32.317,25.687,29.994,3.63
2018-01-28 04:00,32.336,25.702,30.014,3.64
2018-01-28 05:00,,,,
2018-01-28 06:00,,,,
2018-01-28 07:00,32.167,25.583,29.728,3.47
2018-01-28 08:00,32.234,25.630,29.847,3.54
2018-01-28 09:00,,,,
2018-01-28 10:00,32.212,25.611,29.841,3.56
2018-01-28 11:00,32.298,25.670,29.999,3.66
2018-01-28 12:00,32.272,25.651,29.961,3.64
2018-01-28 13:00,32.327,25.688,30.066,3.71
2018-01-28 14:00,32.333,25.693,30.074,3.71
2018-01-28 15:00,32.421,25.755,30.218,3.80
2018-01-28 16:00,32.394,25.735,30.175,3.77
2018-01-28 17:00,32.217,25.617,29.822,3.53
2018-01-28 18:00,32.395,25.737,30.169,3.77
2018-01-28 19:00,,,,
2018-01-28 20:00,32.213,25.611,29.840,3.56
2018-01-28 21:00,32.326,25.689,30.052,3.69
2018-01-28 22:00,32.319,25.683,30.047,3.70
2018-01-28 23:00,32.368,25.716,30.140,3.76
2018-01-29 00:00,32.337,25.695,30.088,3.73
2018-01-29 01:00,32.330,25.690,30.071,3.71
2018-01-29 02:00,32.300,25.668,30.029,3.69
2018-01-29 03:00,32.280,25.656,29.979,3.65
2018-01-29 04:00,32.461,25.781,30.302,3.86
2018-01-29 05:00,32.426,25.756,30.244,3.82
2018-01-29 06:00,32.198,25.597,29.849,3.58
2018-01-29 07:00,32.262,25.646,29.921,3.60
2018-01-29 08:00,,,,
2018-01-29 09:00,32.377,25.721,30.168,3.78
2018-01-29 10:00,32.443,25.771,30.250,3.81
2018-01-29 11:00,32.342,25.703,30.052,3.68
2018-01-29 12:00,32.413,25.749,30.204,3.79
2018-01-29 13:00,32.360,25.716,30.079,3.69
2018-01-29 14:00,,,,
2018-01-29 15:00,32.395,25.737,30.169,3.77
2018-01-29 16:00,32.360,25.715,30.086,3.70
2018-01-29 17:00,32.371,25.718,30.145,3.76
2018-01-29 18:00,32.111,25.556,29.519,3.27
2018-01-29 19:00,32.146,25.576,29.620,3.36
2018-01-29 20:00,32.076,25.530,29.474,3.25
2018-01-29 21:00,32.173,25.596,29.658,3.38
2018-01-29 22:00,32.284,25.666,29.920,3.58
2018-01-29 23:00,32.154,25.575,29.698,3.44
2018-01-30 00:00,32.385,25.730,30.153,3.76
2018-01-30 01:00,32.314,25.690,29.951,3.59
2018-01-30 02:00,32.170,25.596,29.630,3.35
2018-01-30 03:00,32.307,25.692,29.863,3.49
2018-01-30 04:00,32.185,25.608,29.652,3.36
2018-01-30 05:00,32.153,25.580,29.638,3.37
2018-01-30 06:00,32.180,25.600,29.681,3.40
2018-01-30 07:00,32.190,25.605,29.717,3.43
2018-01-30 08:00,32.211,25.620,29.750,3.45
2018-01-30 09:00,32.269,25.661,29.846,3.51
2018-01-30 10:00,32.268,25.663,29.827,3.48
2018-01-30 11:00,32.063,25.516,29.494,3.29
2018-01-30 12:00,31.918,25.420,29.189,3.06
2018-01-30 13:00,32.085,25.538,29.478,3.25
2018-01-30 14:00,32.215,25.637,29.628,3.30
2018-01-30 15:00,,,,
2018-01-30 16:00,,,,
2018-01-30 17:00,32.108,25.557,29.493,3.24
2018-01-30 18:00,32.154,25.596,29.501,3.20
2018-01-30 19:00,32.129,25.579,29.455,3.17
2018-01-30 20:00,32.132,25.579,29.479,3.20
2018-01-30 21:00,,,,
2018-01-30 22:00,31.982,25.476,29.195,3.01
2018-01-30 23:00,31.569,25.169,28.633,2.73
2018-01-31 00:00,31.351,25.010,28.287,2.53
2018-01-31 01:00,31.262,24.947,28.137,2.43
2018-01-31 02:00,,,,
2018-01-31 03:00,31.640,25.226,28.685,2.73
2018-01-31 04:00,31.906,25.425,29.042,2.90
2018-01-31 05:00,31.814,25.368,28.796,2.69
2018-01-31 06:00,,,,
2018-01-31 07:00,,,,
2018-01-31 08:00,31.706,25.291,28.614,2.57
2018-01-31 09:00,31.752,25.322,28.708,2.64
2018-01-31 10:00,31.961,25.473,29.035,2.83
2018-01-31 11:00,31.969,25.485,28.993,2.77
2018-01-31 12:00,31.913,25.446,28.882,2.69
2018-01-31 13:00,31.648,25.253,28.480,2.47
2018-01-31 14:00,31.719,25.309,28.546,2.48
2018-01-31 15:00,31.632,25.243,28.435,2.43
2018-01-31 16:00,31.786,25.355,28.673,2.57
2018-01-31 17:00,31.983,25.505,28.913,2.66
2018-01-31 18:00,32.102,25.598,29.033,2.69
2018-01-31 19:00,32.046,25.550,29.014,2.72
2018-01-31 20:00,31.987,25.499,29.016,2.78
2018-01-31 21:00,31.907,25.446,28.835,2.64
2018-01-31 22:00,31.916,25.449,28.889,2.70
2018-01-31 23:00,31.879,25.424,28.809,2.64
2018-02-01 00:00,31.859,25.412,28.755,2.59
2018-02-01 01:00,31.616,25.233,28.390,2.39
2018-02-01 02:00,31.597,25.217,28.385,2.40
2018-02-01 03:00,31.637,25.248,28.434,2.42
2018-02-01 04:00,31.753,25.334,28.595,2.50
2018-02-01 05:00,32.007,25.528,28.892,2.61
2018-02-01 06:00,32.126,25.618,29.041,2.67
2018-02-01 07:00,32.099,25.597,29.017,2.67
2018-02-01 08:00,32.100,25.591,29.083,2.75
2018-02-01 09:00,32.155,25.630,29.181,2.82
2018-02-01 10:00,32.145,25.624,29.159,2.80
2018-02-01 11:00,32.041,25.551,28.966,2.67
2018-02-01 12:00,31.842,25.398,28.739,2.59
2018-02-01 13:00,31.533,25.172,28.267,2.32
2018-02-01 14:00,31.708,25.303,28.505,2.44
2018-02-01 15:00,31.699,25.296,28.494,2.43
2018-02-01 16:00,31.757,25.338,28.589,2.49
2018-02-01 17:00,31.952,25.486,28.832,2.59
2018-02-01 18:00,31.979,25.509,28.834,2.57
2018-02-01 19:00,32.119,25.613,29.038,2.68
2018-02-01 20:00,32.093,25.593,28.995,2.65
2018-02-01 21:00,32.051,25.559,28.972,2.67
2018-02-01 22:00,32.106,25.599,29.060,2.72
2018-02-01 23:00,31.873,25.421,28.781,2.61
2018-02-02 00:00,32.021,25.535,28.948,2.67
2018-02-02 01:00,31.887,25.430,28.815,2.64
2018-02-02 02:00,31.872,25.421,28.782,2.61
2018-02-02 03:00,31.763,25.344,28.586,2.48
2018-02-02 04:00,31.917,25.462,28.762,2.54
2018-02-02 05:00,31.817,25.387,28.626,2.48
2018-02-02 06:00,31.945,25.483,28.796,2.56
2018-02-02 07:00,31.955,25.492,28.799,2.55
2018-02-02 08:00,32.093,25.590,29.035,2.70
2018-02-02 09:00,32.171,25.643,29.191,2.81
2018-02-02 10:00,32.146,25.629,29.110,2.74
2018-02-02 11:00,31.874,25.422,28.785,2.61
2018-02-02 12:00,31.915,25.452,28.844,2.64
2018-02-02 13:00,31.941,25.471,28.882,2.67
2018-02-02 14:00,32.078,25.575,29.046,2.73
2018-02-02 15:00,31.964,25.497,28.824,2.57
2018-02-02 16:00,31.912,25.456,28.771,2.56
2018-02-02 17:00,31.970,25.501,28.833,2.58
2018-02-02 18:00,31.965,25.500,28.805,2.55
2018-02-02 19:00,31.944,25.482,28.798,2.56
2018-02-02 20:00,32.082,25.583,29.008,2.68
2018-02-02 21:00,32.168,25.643,29.173,2.79
2018-02-02 22:00,32.067,25.565,29.050,2.74
2018-02-02 23:00,31.942,25.474,28.864,2.64
2018-02-03 00:00,31.921,25.458,28.833,2.63
2018-02-03 01:00,31.888,25.440,28.726,2.53
2018-02-03 02:00,31.946,25.479,28.843,2.61
2018-02-03 03:00,31.952,25.493,28.755,2.50
2018-02-03 04:00,31.968,25.508,28.739,2.46
2018-02-03 05:00,32.094,25.601,28.927,2.57
2018-02-03 06:00,32.041,25.565,28.821,2.49
2018-02-03 07:00,31.957,25.507,28.654,2.37
2018-02-03 08:00,31.910,25.472,28.590,2.34
2018-02-03 09:00,32.027,25.553,28.818,2.50
2018-02-03 10:00,32.032,25.553,28.867,2.56
2018-02-03 11:00,32.036,25.553,28.902,2.60
2018-02-03 12:00,31.970,25.508,28.762,2.49
2018-02-03 13:00,31.957,25.501,28.718,2.45
2018-02-03 14:00,31.854,25.432,28.486,2.27
2018-02-03 15:00,31.924,25.486,28.571,2.30
2018-02-03 16:00,31.978,25.528,28.629,2.32
2018-02-03 17:00,32.084,25.609,28.750,2.36
2018-02-03 18:00,32.138,25.650,28.817,2.39
2018-02-03 19:00,31.992,25.541,28.621,2.30
2018-02-03 20:00,32.050,25.582,28.723,2.36
2018-02-03 21:00,32.086,25.605,28.808,2.43
2018-02-03 22:00,32.090,25.604,28.860,2.49
2018-02-03 23:00,32.001,25.538,28.738,2.43
2018-02-04 00:00,32.048,25.570,28.835,2.50
2018-02-04 01:00,31.996,25.532,28.752,2.45
2018-02-04 02:00,32.005,25.540,28.749,2.44
2018-02-04 03:00,32.091,25.598,28.926,2.57
2018-02-04 04:00,31.917,25.481,28.551,2.28
2018-02-04 05:00,32.005,25.545,28.695,2.37
2018-02-04 06:00,31.897,25.475,28.425,2.15
2018-02-04 07:00,31.953,25.515,28.533,2.23
2018-02-04 08:00,32.106,25.625,28.788,2.39
2018-02-04 09:00,32.157,25.661,28.882,2.45
2018-02-04 10:00,32.187,25.674,29.021,2.59
2018-02-04 11:00,32.110,25.615,28.933,2.56
2018-02-04 12:00,31.858,25.436,28.483,2.26
2018-02-04 13:00,31.808,25.401,28.389,2.19
2018-02-04 14:00,31.760,25.369,28.274,2.10
2018-02-04 15:00,31.925,25.488,28.555,2.28
2018-02-04 16:00,31.958,25.514,28.596,2.30
2018-02-04 17:00,31.993,25.539,28.645,2.32
2018-02-04 18:00,32.033,25.569,28.700,2.35
2018-02-04 19:00,32.047,25.580,28.716,2.36
2018-02-04 20:00,32.083,25.607,28.770,2.39
2018-02-04 21:00,32.088,25.610,28.785,2.40
2018-02-04 22:00,32.242,25.716,29.087,2.62
2018-02-04 23:00,32.212,25.691,29.067,2.62
2018-02-05 00:00,32.136,25.636,28.945,2.55
2018-02-05 01:00,,,,
2018-02-05 02:00,31.958,25.507,28.659,2.38
2018-02-05 03:00,31.973,25.519,28.676,2.38
2018-02-05 05:00,32.080,25.600,28.812,2.44
2018-02-05 06:00,32.075,25.592,28.848,2.49
2018-02-05 07:00,32.121,25.627,28.903,2.51
2018-02-05 08:00,32.096,25.607,28.882,2.51
2018-02-05 09:00,32.209,25.690,29.047,2.60
2018-02-05 10:00,32.195,25.682,29.012,2.57
2018-02-05 11:00,32.263,25.729,29.146,2.67
2018-02-05 12:00,32.215,25.690,29.106,2.66
2018-02-05 13:00,32.099,25.613,28.846,2.46
2018-02-05 14:00,32.111,25.620,28.893,2.51
2018-02-05 15:00,32.087,25.603,28.843,2.47
2018-02-05 16:00,32.071,25.588,28.857,2.51
2018-02-05 17:00,31.908,25.464,28.659,2.42
2018-02-05 18:00,31.930,25.480,28.688,2.44
2018-02-05 19:00,31.888,25.447,28.659,2.44
2018-02-05 20:00,32.064,25.578,28.890,2.55
2018-02-05 21:00,32.153,25.645,29.016,2.62
2018-02-05 22:00,32.184,25.667,29.059,2.64
2018-02-05 23:00,32.361,25.791,29.379,2.85
2018-02-06 00:00,32.187,25.670,29.053,2.63
2018-02-06 01:00,32.028,25.555,28.809,2.49
2018-02-06 02:00,31.972,25.515,28.716,2.43
2018-02-06 03:00,32.128,25.629,28.949,2.56
2018-02-06 04:00,32.035,25.561,28.812,2.49
2018-02-06 05:00,31.927,25.486,28.598,2.33
2018-02-06 06:00,32.084,25.605,28.802,2.42
2018-02-06 07:00,32.130,25.632,28.937,2.54
2018-02-06 08:00,32.145,25.643,28.957,2.55
2018-02-06 09:00,32.116,25.624,28.891,2.50
2018-02-06 10:00,32.203,25.678,29.117,2.69
2018-02-06 11:00,32.214,25.687,29.132,2.70
2018-02-06 12:00,32.097,25.605,28.914,2.55
2018-02-06 13:00,32.177,25.662,29.055,2.64
2018-02-06 14:00,32.090,25.600,28.899,2.54
2018-02-06 15:00,31.995,25.532,28.747,2.45
2018-02-06 16:00,31.987,25.536,28.621,2.30
2018-02-06 17:00,32.007,25.547,28.692,2.37
2018-02-06 18:00,,,,
2018-02-06 19:00,32.004,25.544,28.705,2.39
2018-02-06 20:00,32.024,25.558,28.742,2.41
2018-02-06 21:00,32.149,25.646,28.964,2.56
2018-02-06 22:00,32.133,25.632,28.959,2.57
2018-02-06 23:00,32.099,25.611,28.871,2.49
2018-02-07 00:00,32.188,25.671,29.058,2.63
2018-02-07 01:00,32.271,25.726,29.244,2.78
2018-02-07 02:00,32.066,25.582,28.868,2.52
2018-02-07 03:00,32.025,25.547,28.866,2.56
2018-02-07 04:00,32.054,25.573,28.857,2.52
2018-02-07 05:00,31.958,25.506,28.680,2.40
2018-02-07 06:00,32.032,25.563,28.764,2.43
2018-02-07 07:00,32.091,25.604,28.880,2.51
2018-02-07 08:00,32.079,25.599,28.816,2.45
2018-02-07 09:00,,,,
2018-02-07 10:00,,,,
2018-02-07 11:00,32.105,25.617,28.866,2.48
2018-02-07 12:00,32.164,25.658,28.975,2.56
2018-02-07 13:00,32.118,25.620,28.945,2.57
2018-02-07 14:00,32.066,25.582,28.874,2.53
2018-02-07 15:00,31.950,25.491,28.754,2.50
2018-02-07 16:00,32.093,25.599,28.937,2.58
2018-02-07 17:00,32.046,25.563,28.886,2.57
2018-02-07 18:00,31.957,25.497,28.752,2.49
2018-02-07 19:00,31.994,25.533,28.724,2.42
2018-02-07 20:00,,,,
2018-02-07 21:00,32.181,25.682,28.883,2.43
2018-02-07 22:00,32.097,25.616,28.797,2.41
2018-02-07 23:00,32.208,25.702,28.920,2.45
2018-02-08 00:00,32.213,25.708,28.901,2.42
2018-02-08 01:00,32.168,25.669,28.893,2.45
2018-02-08 02:00,32.099,25.608,28.901,2.53
2018-02-08 03:00,32.023,25.545,28.861,2.56
2018-02-08 04:00,31.993,25.523,28.823,2.54
2018-02-08 05:00,32.195,25.683,29.004,2.56
2018-02-08 06:00,32.181,25.670,29.002,2.57
2018-02-08 07:00,32.214,25.704,28.955,2.48
2018-02-08 08:00,,,,
2018-02-08 09:00,31.906,25.484,28.420,2.13
2018-02-08 10:00,31.732,25.350,28.218,2.06
2018-02-08 11:00,31.815,25.409,28.368,2.16
2018-02-08 12:00,32.048,25.586,28.662,2.29
2018-02-08 13:00,32.156,25.666,28.817,2.37
2018-02-08 14:00,32.203,25.708,28.808,2.32
2018-02-08 15:00,32.267,25.760,28.846,2.30
2018-02-08 16:00,32.204,25.709,28.809,2.32
2018-02-08 17:00,32.181,25.688,28.809,2.34
2018-02-08 18:00,32.057,25.585,28.757,2.40
2018-02-08 19:00,31.801,25.392,28.421,2.24
2018-02-08 20:00,31.646,25.268,28.293,2.24
2018-02-08 21:00,31.689,25.299,28.361,2.28
2018-02-08 22:00,31.866,25.441,28.511,2.29
2018-02-08 23:00,31.926,25.489,28.560,2.29
2018-02-09 00:00,31.975,25.527,28.609,2.30
2018-02-09 01:00,32.074,25.604,28.715,2.33
2018-02-09 02:00,32.161,25.665,28.877,2.44
2018-02-09 03:00,32.170,25.670,28.908,2.47
2018-02-09 04:00,32.201,25.697,28.908,2.44
2018-02-09 05:00,32.205,25.699,28.919,2.45
2018-02-09 06:00,32.207,25.702,28.916,2.44
2018-02-09 07:00,32.143,25.654,28.827,2.40
2018-02-09 08:00,32.033,25.571,28.682,2.33
2018-02-09 09:00,32.030,25.583,28.527,2.14
2018-02-09 10:00,31.976,25.543,28.435,2.08
2018-02-09 11:00,32.074,25.618,28.562,2.14
2018-02-09 12:00,32.236,25.741,28.764,2.23
2018-02-09 13:00,32.275,25.767,28.857,2.30
2018-02-09 14:00,32.287,25.773,28.899,2.34
2018-02-09 15:00,32.231,25.733,28.809,2.29
2018-02-09 16:00,32.260,25.752,28.873,2.34
2018-02-09 17:00,32.263,25.754,28.886,2.35
2018-02-09 18:00,32.307,25.786,28.945,2.38
2018-02-09 19:00,32.216,25.719,28.810,2.30
2018-02-09 20:00,32.127,25.652,28.691,2.25
2018-02-09 21:00,31.850,25.440,28.373,2.13
2018-02-09 22:00,31.861,25.451,28.344,2.09
2018-02-09 23:00,32.017,25.571,28.528,2.16
2018-02-10 00:00,32.088,25.623,28.635,2.22
2018-02-10 01:00,32.242,25.739,28.838,2.31
2018-02-10 02:00,32.349,25.815,29.030,2.44
2018-02-10 03:00,32.263,25.757,28.846,2.30
2018-02-10 04:00,32.311,25.792,28.925,2.35
2018-02-10 05:00,32.307,25.789,28.914,2.34
2018-02-10 06:00,32.304,25.788,28.902,2.33
2018-02-10 07:00,32.263,25.759,28.825,2.28
2018-02-10 08:00,32.227,25.732,28.783,2.26
2018-02-10 09:00,32.118,25.648,28.656,2.21
2018-02-10 10:00,32.086,25.622,28.626,2.21
2018-02-10 11:00,32.071,25.610,28.623,2.22
2018-02-10 12:00,32.180,25.688,28.800,2.33
2018-02-10 13:00,32.281,25.761,28.967,2.43
2018-02-10 14:00,32.348,25.805,29.126,2.56
2018-02-10 15:00,32.358,25.816,29.098,2.51
2018-02-10 16:00,32.325,25.798,28.992,2.42
2018-02-10 17:00,32.391,25.844,29.115,2.50
2018-02-10 18:00,32.281,25.763,28.955,2.42
2018-02-10 19:00,32.288,25.767,28.978,2.44
2018-02-10 20:00,32.296,25.771,29.002,2.46
2018-02-10 21:00,32.248,25.742,28.868,2.34
2018-02-10 22:00,32.242,25.736,28.873,2.36
2018-02-10 23:00,32.296,25.775,28.966,2.41
2018-02-11 00:00,32.179,25.687,28.808,2.34
2018-02-11 01:00,32.205,25.707,28.841,2.35
2018-02-11 02:00,32.287,25.769,28.949,2.40
2018-02-11 03:00,32.272,25.756,28.943,2.41
2018-02-11 04:00,32.256,25.746,28.897,2.37
2018-02-11 05:00,32.274,25.756,28.959,2.43
2018-02-11 06:00,32.269,25.755,28.924,2.39
2018-02-11 07:00,32.328,25.798,29.020,2.45
2018-02-11 08:00,32.273,25.758,28.928,2.39
2018-02-11 09:00,32.300,25.776,28.996,2.45
2018-02-11 10:00,32.316,25.790,28.994,2.43
2018-02-11 11:00,32.272,25.754,28.961,2.43
2018-02-11 12:00,32.052,25.591,28.651,2.27
2018-02-11 13:00,32.133,25.649,28.775,2.34
2018-02-11 14:00,32.267,25.747,28.991,2.47
2018-02-11 15:00,32.285,25.762,29.005,2.47
2018-02-11 16:00,32.267,25.752,28.936,2.41
2018-02-11 17:00,32.252,25.739,28.935,2.42
2018-02-11 18:00,32.261,25.746,28.947,2.43
2018-02-11 19:00,32.149,25.659,28.826,2.39
2018-02-11 20:00,32.278,25.759,28.968,2.43
2018-02-11 21:00,32.293,25.769,28.993,2.45
2018-02-11 22:00,32.233,25.724,28.913,2.41
2018-02-11 23:00,31.810,25.399,28.430,2.24
2018-02-12 00:00,32.057,25.589,28.716,2.35
2018-02-12 01:00,32.042,25.579,28.683,2.32
2018-02-12 02:00,32.215,25.701,28.999,2.54
2018-02-12 03:00,32.224,25.708,29.008,2.54
2018-02-12 04:00,32.300,25.760,29.147,2.63
2018-02-12 05:00,32.256,25.731,29.055,2.56
2018-02-12 06:00,32.185,25.686,28.880,2.42
2018-02-12 07:00,32.241,25.730,28.934,2.43
2018-02-12 08:00,32.308,25.776,29.060,2.52
2018-02-12 09:00,,,,
2018-02-12 10:00,,,,
2018-02-12 11:00,,,,
2018-02-12 12:00,,,,
2018-02-12 13:00,,,,
2018-02-12 14:00,,,,
2018-02-12 15:00,,,,
2018-02-12 16:00,,,,
2018-02-12 17:00,,,,
2018-02-12 18:00,,,,
2018-02-12 19:00,,,,
2018-02-12 20:00,,,,
2018-02-12 21:00,,,,
2018-02-12 22:00,,,,
2018-02-12 23:00,,,,
2018-02-13 00:00,,,,
2018-02-13 01:00,,,,
2018-02-13 02:00,,,,
2018-02-13 03:00,,,,
2018-02-13 04:00,,,,
2018-02-13 05:00,,,,
2018-02-13 06:00,,,,
2018-02-13 07:00,,,,
2018-02-13 08:00,,,,
2018-02-13 09:00,,,,
2018-02-13 10:00,,,,
2018-02-13 11:00,,,,
2018-02-13 12:00,,,,
2018-02-13 13:00,,,,
2018-02-13 14:00,,,,
2018-02-13 15:00,,,,
2018-02-13 16:00,,,,
2018-02-13 17:00,,,,
2018-02-13 18:00,,,,
2018-02-13 19:00,,,,
2018-02-13 20:00,,,,
2018-02-13 21:00,,,,
2018-02-13 22:00,,,,
2018-02-13 23:00,,,,0.00
2018-02-14 00:00,,,,
2018-02-14 01:00,,,,
2018-02-14 02:00,,,,
2018-02-14 03:00,,,,
2018-02-14 04:00,,,,
2018-02-14 05:00,,,,
2018-02-14 06:00,,,,
2018-02-14 07:00,,,,
2018-02-14 08:00,,,,
2018-02-14 09:00,,,,
2018-02-14 10:00,,,,
2018-02-14 11:00,,,,
2018-02-14 12:00,,,,
2018-02-14 13:00,,,,
2018-02-14 14:00,,,,
2018-02-14 15:00,,,,
2018-02-14 16:00,,,,
2018-02-14 17:00,,,,
2018-02-14 18:00,,,,
2018-02-14 19:00,,,,
2018-02-14 20:00,,,,
2018-02-14 21:00,,,,
2018-02-14 22:00,,,,
2018-02-14 23:00,,,,
2018-02-15 00:00,,,,
2018-02-15 01:00,,,,
2018-02-15 02:00,,,,
2018-02-15 03:00,,,,
2018-02-15 04:00,,,,
2018-02-15 05:00,,,,
2018-02-15 06:00,,,,
2018-02-15 07:00,,,,
2018-02-15 08:00,,,,
2018-02-15 09:00,,,,
2018-02-15 10:00,,,,
2018-02-15 11:00,,,,
2018-02-15 12:00,,,,
2018-02-15 13:00,,,,
2018-02-15 14:00,,,,
2018-02-15 15:00,,,,
2018-02-15 16:00,,,,
2018-02-15 17:00,,,,
2018-02-15 18:00,,,,
2018-02-15 19:00,,,,
2018-02-15 20:00,,,,
2018-02-15 21:00,,,,
2018-02-15 22:00,,,,
2018-02-15 23:00,,,,
2018-02-16 00:00,,,,
2018-02-16 01:00,,,,
2018-02-16 02:00,,,,
2018-02-16 03:00,,,,
2018-02-16 04:00,,,,
2018-02-16 05:00,,,,
2018-02-16 06:00,,,,
2018-02-16 07:00,,,,
2018-02-16 08:00,,,,
2018-02-16 09:00,,,,
2018-02-16 10:00,,,,
2018-02-16 11:00,,,,
2018-02-16 12:00,,,,
2018-02-16 13:00,,,,
2018-02-16 14:00,,,,
2018-02-16 15:00,,,,
2018-02-16 16:00,,,,
2018-02-16 17:00,,,,
2018-02-16 18:00,,,,
2018-02-16 19:00,,,,
2018-02-16 20:00,,,,
2018-02-16 21:00,,,,
2018-02-16 22:00,,,,
2018-02-16 23:00,,,,
2018-02-17 00:00,,,,
2018-02-17 01:00,,,,
2018-02-17 02:00,,,,
2018-02-17 03:00,,,,
2018-02-17 04:00,,,,
2018-02-17 05:00,,,,
2018-02-17 06:00,,,,
2018-02-17 07:00,,,,
2018-02-17 08:00,,,,
2018-02-17 09:00,,,,
2018-02-17 10:00,,,,
2018-02-17 11:00,,,,
2018-02-17 12:00,,,,
2018-02-17 13:00,,,,
2018-02-17 14:00,,,,
2018-02-17 15:00,,,,
2018-02-17 16:00,,,,
2018-02-17 17:00,,,,
2018-02-17 18:00,,,,
2018-02-17 19:00,,,,
2018-02-17 20:00,,,,
2018-02-17 21:00,,,,
2018-02-17 22:00,,,,
2018-02-17 23:00,,,,
2018-02-18 00:00,,,,
2018-02-18 01:00,,,,
2018-02-18 02:00,,,,
2018-02-18 03:00,,,,
2018-02-18 04:00,,,,5.00
2018-02-18 05:00,,,,
2018-02-18 06:00,,,,
2018-02-18 07:00,,,,
2018-02-18 08:00,,,,
2018-02-18 09:00,,,,
2018-02-18 10:00,,,,
2018-02-18 11:00,,,,
2018-02-18 12:00,,,,
2018-02-18 13:00,,,,
2018-02-18 14:00,,,,
2018-02-18 15:00,,,,
2018-02-18 16:00,,,,
2018-02-18 17:00,,,,
2018-02-18 18:00,,,,
2018-02-18 19:00,,,,
2018-02-18 20:00,,,,
2018-02-18 21:00,,,,
2018-02-18 22:00,,,,
2018-02-18 23:00,,,,
2018-02-19 00:00,,,,
2018-02-19 01:00,,,,
2018-02-19 02:00,,,,
2018-02-19 03:00,,,,
2018-02-19 04:00,,,,
2018-02-19 05:00,,,,
2018-02-19 06:00,,,,
2018-02-19 07:00,,,,
2018-02-19 08:00,,,,
2018-02-19 09:00,,,,
2018-02-19 10:00,,,,
2018-02-19 11:00,,,,
2018-02-19 12:00,,,,1.00
2018-02-19 13:00,,,,6.00
2018-02-19 14:00,,,,4.00
2018-02-19 15:00,,,,9.00
2018-02-19 16:00,,,,
2018-02-19 17:00,,,,
2018-02-19 18:00,,,,4.00
2018-02-19 19:00,,,,
2018-02-19 20:00,,,,
2018-02-19 21:00,,,,
2018-02-19 22:00,,,,
2018-02-19 23:00,,,,
2018-02-20 00:00,,,,
2018-02-20 01:00,,,,
2018-02-20 02:00,,,,
2018-02-20 03:00,,,,
2018-02-20 04:00,,,,
2018-02-20 05:00,,,,
2018-02-20 06:00,,,,
2018-02-20 07:00,,,,
2018-02-20 08:00,,,,
2018-02-20 09:00,,,,
2018-02-20 10:00,,,,
2018-02-20 11:00,,,,
2018-02-20 12:00,,,,
2018-02-20 13:00,,,,
2018-02-20 14:00,,,,
2018-02-20 15:00,,,,
2018-02-20 16:00,,,,
2018-02-20 17:00,,,,
2018-02-20 18:00,,,,
2018-02-20 19:00,,,,
2018-02-20 20:00,,,,
2018-02-20 21:00,,,,
2018-02-20 22:00,,,,
2018-02-20 23:00,,,,
2018-02-21 00:00,,,,
2018-02-21 01:00,,,,
2018-02-21 02:00,,,,
2018-02-21 03:00,,,,
2018-02-21 04:00,,,,
2018-02-21 05:00,,,,
2018-02-21 07:00,,,,
2018-02-21 08:00,,,,